Weather History for North Adams, MA

Change the Weather History Date:

Friday, February 22, 2013

  Actual Average Record
Temperature  
Mean Temperature 26 °F -  
Max Temperature 37 °F 34 °F 63 °F (1997)
Min Temperature 15 °F 16 °F 3 °F (1999)
Degree Days  
Heating Degree Days 39    
Moisture  
Dew Point 13 °F    
Average Humidity 57    
Maximum Humidity 79    
Minimum Humidity 39    
Precipitation  
Precipitation 0.00 in - - ()
Sea Level Pressure  
Sea Level Pressure 30.34 in    
Wind  
Wind Speed 5 mph (SE)    
Max Wind Speed 17 mph    
Max Gust Speed 24 mph    
Visibility 10 miles    
Events      
Averages and records for this station are not official NWS values.
T = Trace of Precipitation, MM = Missing Value Source: NWS Daily Summary

Daily Weather History Graph

Daily Weather History Graph

Search for Another Location

Airport:

Trip Planner

Search our weather history database for the weather conditions in past years. The results will help you decide how hot, cold, wet, or windy it might be!

Date:

Astronomy

Feb. 22, 2013 Rise Set
Actual Time 6:39 AM EST 5:33 PM EST
Civil Twilight 6:10 AM EST 6:02 PM EST
Nautical Twilight 5:37 AM EST 6:35 PM EST
Astronomical Twilight 5:05 AM EST 7:07 PM EST
Moon 2:40 PM EST (2/22) 4:25 AM EST (2/22)
Length of Visible Light 11h 51m
Length of Day
10h 54m
Waxing Gibbous, 90% of the Moon is Illuminated
Feb 22
Waxing Gibbous
Feb 25
Full
Mar 4
Last Quarter
Mar 11
New
Mar 19
First Quarter

Hourly Weather History & Observations

Time (EST) Temp. Windchill Dew Point Humidity Pressure Visibility Wind Dir Wind Speed Gust Speed Precip Events Conditions
12:52 AM 19.0 °F 9.0 °F 9.0 °F 65% 30.37 in 10.0 mi WSW 8.1 mph - N/A   Overcast
1:52 AM 19.0 °F 10.0 °F 9.0 °F 65% 30.35 in 10.0 mi WSW 6.9 mph - N/A   Overcast
2:52 AM 19.9 °F 12.1 °F 10.9 °F 68% 30.34 in 10.0 mi West 5.8 mph - N/A   Scattered Clouds
3:52 AM 19.0 °F 11.1 °F 10.9 °F 71% 30.32 in 10.0 mi WSW 5.8 mph - N/A   Clear
4:52 AM 17.1 °F - 10.0 °F 74% 30.37 in 10.0 mi Calm Calm - N/A   Clear
5:48 AM 15.8 °F 10.2 °F 10.4 °F 79% 30.36 in 10.0 mi NW 3.5 mph - N/A   Mostly Cloudy
5:52 AM 17.1 °F - 10.0 °F 74% 30.40 in 10.0 mi Calm Calm - N/A   Mostly Cloudy
6:44 AM 15.8 °F 10.2 °F 10.4 °F 79% 30.38 in 10.0 mi ESE 3.5 mph - N/A   Overcast
7:26 AM 15.8 °F 8.6 °F 8.6 °F 73% 30.38 in 10.0 mi East 4.6 mph - N/A   Scattered Clouds
8:52 AM 21.0 °F - 12.9 °F 71% 30.43 in 10.0 mi Calm Calm - N/A   Clear
9:52 AM 25.0 °F - 14.0 °F 63% 30.41 in 10.0 mi Calm Calm - N/A   Clear
10:52 AM 27.0 °F - 14.0 °F 58% 30.38 in 10.0 mi Calm Calm - N/A   Clear
11:52 AM 32.0 °F 28.7 °F 16.0 °F 52% 30.37 in 10.0 mi West 3.5 mph - N/A   Clear
12:52 PM 34.0 °F - 15.1 °F 46% 30.34 in 10.0 mi Calm Calm - N/A   Clear
1:52 PM 36.0 °F - 15.1 °F 43% 30.31 in 10.0 mi Calm Calm - N/A   Clear
2:52 PM 37.0 °F - 16.0 °F 42% 30.30 in 10.0 mi Calm Calm - N/A   Clear
3:52 PM 37.9 °F 32.1 °F 15.1 °F 39% 30.29 in 10.0 mi ESE 8.1 mph - N/A   Clear
4:52 PM 37.0 °F 32.4 °F 14.0 °F 39% 30.29 in 10.0 mi East 5.8 mph - N/A   Clear
5:52 PM 35.1 °F 31.0 °F 16.0 °F 46% 30.30 in 10.0 mi ESE 4.6 mph - N/A   Clear
6:52 PM 36.0 °F 31.1 °F 16.0 °F 44% 30.30 in 10.0 mi SE 5.8 mph - N/A   Mostly Cloudy
7:52 PM 36.0 °F 32.1 °F 15.1 °F 43% 30.30 in 10.0 mi ENE 4.6 mph - N/A   Overcast
8:52 PM 35.1 °F 27.9 °F 16.0 °F 46% 30.29 in 10.0 mi East 9.2 mph - N/A   Overcast
9:52 PM 35.1 °F 27.9 °F 16.0 °F 46% 30.28 in 10.0 mi East 9.2 mph 17.3 mph N/A   Overcast
10:52 PM 34.0 °F 25.0 °F 17.1 °F 50% 30.28 in 10.0 mi ESE 12.7 mph 19.6 mph N/A   Overcast
11:52 PM 33.1 °F 22.2 °F 17.1 °F 52% 30.27 in 10.0 mi ESE 17.3 mph 24.2 mph N/A   Overcast